Regional Weather Roundup
Issued by NWS

Home | Current Version | Previous Version | Text Only | Print | Product List | Glossary On
Versions: 1 2 3 4 5 6 7 8 9 10 11 12 13 14 15 16 17 18 19 20 21 22 23 24 25 26 27 28 29 30 31 32 33 34 35 36 37 38 39 40 41 42 43 44 45 46 47 48
828
ASUS45 KBOU 250007
RWRCO

WEATHER ROUNDUP FOR COLORADO
NATIONAL WEATHER SERVICE DENVER/BOULDER CO
600 PM MDT MON APR 24 2017

NOTE: "FAIR" INDICATES FEW OR NO CLOUDS BELOW 12000 FEET WITH NO
SIGNIFICANT WEATHER AND/OR OBSTRUCTIONS TO VISIBILITY.

COZ001>005-013-030-031-250100-
...NORTHWEST COLORADO...

CITY           SKY/WX    TMP DP  RH WIND       PRES   REMARKS
CRAIG          LGT RAIN  52  36  54 W18G31    29.61R
HAYDEN         CLOUDY    46  34  61 S13G26    29.63F
MEEKER         CLOUDY    58  25  28 SW16G35   29.59S
MOUNT WERNER   NOT AVBL
STEAMBOAT SPGS CLOUDY    48  35  59 SW9       29.64F
WALDEN           N/A     39  34  81 S13       29.71S
$$

COZ006>008-011-250100-
...WEST CENTRAL VALLEYS...

CITY           SKY/WX    TMP DP  RH WIND       PRES   REMARKS
GRAND JUNCTION CLOUDY    66  24  20 VRB6      29.55F
MONTROSE       FAIR      60  28  29 SE9       29.68S
EAGLE          CLOUDY    54  28  37 SW9       29.68S
RIFLE          FAIR      63  25  23 SW17G32   29.59F
DELTA          CLOUDY    65  26  22 S13G20    29.61F
NUCLA          CLOUDY    61  25  25 S14G22    29.70F
$$

COZ017>023-064>068-250100-
...SOUTHWEST COLORADO...

CITY           SKY/WX    TMP DP  RH WIND       PRES   REMARKS
DURANGO        CLOUDY    57  22  25 W14G24    29.78F
CORTEZ         CLOUDY    62  24  23 SW14G21   29.71F
PAGOSA SPRINGS CLOUDY    53  23  32 W24G30    29.85R
TELLURIDE      CLOUDY    40  31  71 SE8       29.89F
WOLF CREEK PAS FLURRIES  30  21  69 SW25G39   29.98S WCI  16
$$

COZ009-010-012-014-032>034-037-058>063-250100-
...CENTRAL COLORADO...

CITY           SKY/WX    TMP DP  RH WIND       PRES   REMARKS
ASPEN          CLOUDY    47  32  56 S16       29.72F
BUENA VISTA    FAIR      49  29  45 W16G25    29.72S
COPPER MTN     LGT SNOW  34  25  69 MISG      29.87S
BERTHOUD PASS  CLOUDY    28  18  64 MISG      29.86S
COTTONWOOD PAS CLOUDY    43  28  56 W17G33    29.78S
GUNNISON       FAIR      51  26  37 SW14G23   29.75F
KREMMLING      CLOUDY    54  36  50 SW15G22   29.69F
LEADVILLE      FAIR      41  23  48 S20       29.78R
MONARCH PASS   CLOUDY    30  27  86 W23G33    30.00R WCI  17
SALIDA         PTSUNNY   54  28  37 W15G28    29.80R
SUNLIGHT       CLOUDY    34  27  75 SW15G33   29.82S WCI  24
WILKERSON PASS PTSUNNY   37  19  48 SW18G25   29.85S
$$

COZ069>075-250100-
...SAN LUIS VALLEY/SANGRE DE CRISTO MOUNTAINS...

CITY           SKY/WX    TMP DP  RH WIND       PRES   REMARKS
ALAMOSA          N/A     56  23  27 SW23G35   29.74F
LA VETA PASS   CLOUDY    43  21  42 SW30G40   29.91F
SAGUACHE       FAIR      54  23  30 W17G23    29.75R
$$

COZ035-036-038>040-250100-
...NORTHERN COLORADO FRONT RANGE...

CITY           SKY/WX    TMP DP  RH WIND       PRES   REMARKS
DENVER INTL AP CLOUDY    61  34  36 E16       29.54F
DMNS CITY PARK   N/A     63  30  28 NE16      29.55S
AURORA         PTSUNNY   62  31  31 E12       29.55F
FRONT RANGE AP PTSUNNY   63  37  39 NE14      29.57F
ERIE MUNI ARPT LGT RAIN  63  32  31 CALM      29.56S
BOULDER MUN AP PTSUNNY   61  34  36 NE5       29.56S
CENTENNIAL     PTSUNNY   61  31  32 SE12G18   29.55F
BROOMFIELD     CLOUDY    61  32  33 N12       29.57F
FORT COLLINS   FAIR      59  37  44 E21G26    29.57F
LONGMONT       CLOUDY    64  34  33 NE9       29.57F
$$

COZ041-046-047-076>085-087-088-250100-
...PIKES PEAK/PALMER DIVIDE AND SOUTHERN FOOTHILLS...

CITY           SKY/WX    TMP DP  RH WIND       PRES   REMARKS
COLO. SPRINGS  PTSUNNY   67  26  21 SE16      29.58S
A. F. ACADEMY  PTSUNNY   65  25  21 SW8       29.58R
SCHRIEVER AFB  PTSUNNY   63  27  26 SE14      29.58S
ELLICOTT       PTSUNNY  N/A N/A N/A E20       29.57F
FALCON         CLOUDY    60  29  31 S9        29.62R
FORT CARSON    FAIR      68  24  18 SW16      29.55R
LIMON          FAIR      63  35  35 E13       29.58F
MONUMENT HILL  PTSUNNY   55  28  35 S13       29.62R
TRINIDAD       FAIR      71  17  12 W24G30    29.57F
$$

COZ042>045-048>051-090-091-250100-
...NORTHEAST COLORADO...

CITY           SKY/WX    TMP DP  RH WIND       PRES   REMARKS
GREELEY ARPT   PTSUNNY   58  37  45 E12G21    29.58F
AKRON          FAIR      62  35  36 E10       29.57F
BURLINGTON     NOT AVBL
WRAY           NOT AVBL
STERLING       CLOUDY    64  32  29 E9        29.56S
HOLYOKE        FAIR      70  32  24 N3        29.57F
FORT MORGAN    CLOUDY    62  30  29 E3G24     29.60R
$$

COZ086-089-092>099-250100-
...SOUTHEAST COLORADO...

CITY           SKY/WX    TMP DP  RH WIND       PRES   REMARKS
PUEBLO         FAIR      73  24  16 SW17G29   29.49F
LA JUNTA       FAIR      77  29  17 SW3       29.46F
LAMAR          FAIR      75  35  23 SE17      29.46F
SPRINGFIELD      N/A     71  36  27 E20       29.50S
$$




USA.gov is the U.S. government's official web portal to all federal, state and local government web resources and services.